Regional Weather Roundup
Issued by NWS Green Bay, WI

Home | Current Version | Previous Version | Graphics & Text | Print | Product List | Glossary Off
Versions: 1 2 3 4 5 6 7 8 9 10 11 12 13 14 15 16 17 18 19 20 21 22 23 24 25 26 27 28 29 30 31 32 33 34 35 36 37 38 39 40 41 42 43 44 45 46 47 48 49 50

000
ASUS43 KGRB 021100
RWRGRB

NORTH-CENTRAL AND NORTHEAST WISCONSIN REGIONAL WEATHER ROUNDUP
NATIONAL WEATHER SERVICE GREEN BAY WI
600 AM CDT WED SEP 02 2015

WIZ005-009-010>012-018-019-021200-
NORTH CENTRAL WISCONSIN

CITY           SKY/WX    TMP DP  RH WIND       PRES   REMARKS
IRONWOOD       CLOUDY    66  66 100 N6        29.94R
MANITOWISH WTR NOT AVBL
ARBOR VITAE    NOT AVBL
EAGLE RIVER    NOT AVBL
LAND O LAKES   NOT AVBL
RHINELANDER    FOG       68  67  96 CALM      30.00S VSB 3/4
PHILLIPS       CLOUDY    70  70 100 CALM      29.97S FOG
ANTIGO         NOT AVBL
TOMAHAWK       NOT AVBL
MERRILL        FOG       64  64 100 CALM      29.99S VSB 1/4
$$

WIZ013-073-021200-
NORTHEAST WISCONSIN

CITY           SKY/WX    TMP DP  RH WIND       PRES   REMARKS
IRON MOUNTAIN  MOCLDY    65  63  93 CALM      29.97R FOG
MARINETTE      PTCLDY    70  66  88 CALM      29.95R
$$

WIZ017-030-035>037-045-021200-
CENTRAL WISCONSIN

CITY           SKY/WX    TMP DP  RH WIND       PRES   REMARKS
MEDFORD        NOT AVBL
WAUSAU         PTCLDY    72  71  97 S6        29.98R FOG
MOSINEE        CLOUDY    70  70 100 SW5       30.01R FOG
MARSHFIELD     FOG       70  67  90 SW6       29.99R VSB 1/4
WISC RAPIDS    LGT RAIN  71  69  93 SW3       30.00R FOG
STEVENS POINT  NOT AVBL
WAUPACA        NOT AVBL
SHAWANO        NOT AVBL
CLINTONVILLE   FOG       66  64  94 CALM      29.98R VSB 1/4
WAUTOMA        NOT AVBL
$$

WIZ038-039-048-051-021200-
FOX VALLEY

CITY           SKY/WX    TMP DP  RH WIND       PRES   REMARKS
NWS GREEN BAY  CLEAR     69  68  96 CALM      29.97R FOG
APPLETON       CLEAR     72  72 100 SW7       29.96S FOG
OSHKOSH        CLEAR     72  69  90 SW6       29.99R FOG
FOND DU LAC    CLEAR     72  70  93 SW5       30.00R
$$

WIZ022-050-052-021200-
EAST CENTRAL WISCONSIN

CITY           SKY/WX    TMP DP  RH WIND       PRES   REMARKS
EPHRAIM        FAIR      71  70  98 W5        29.95R FOG
STURGEON BAY   PTCLDY    73  70  88 W6        29.99R
MANITOWOC      NOT AVBL
SHEBOYGAN      CLEAR     71  69  93 SW3       29.99R FOG
$$

LMZ563-521-522-541>543-021200-
LAKESHORE

STATION/POSITION TIME  TEMP    WIND        PRES    VSBY  WAVE
                       AIR SEA DIR/SP/G                  HT/PER
                 (UTC) (F)     (DEG/KT/KT) (MB)    (MI)  (FT/S)
SHEBOYGAN LKSHOR 1000   74     240/  8/  9 1014.8R
KEWAUNEE LKSHORE 1000          190/  3/  4 1013.2R
NORTHPORT PIER   1000   64     100/  2/  2 1013.5S
N MID LAKE BUOY  0950   66 65  200/  6/  6 1013.6S         1/ 4
S GREEN BAY BUOY 1000   69 67  220/  6/  8 1015.4
SISTER BAY LKSHO 1019   71        CALM       N/A
CHAMBERS ISLAND  1000   69      CALM  /  2 1013.5S
MENOMINEE LKSHOR 1000   73     260/  1/  5 1012.5F
$$


USA.gov is the U.S. government's official web portal to all federal, state and local government web resources and services.